CW6353 Weather Reports


time (UTC)temp
F
wind
direction
speed
knots
gust
knots
rain 1hr
in
rain 24hr
in
rain mn
in
humidity
%
barometer
mb
20211017145532 59 14 10.4 17.4 0.00 0.00 0.00 54 1024.2
20211017145013 58 19 7.8 15.6 0.00 0.00 0.00 57 1024.3
20211017144554 59 34 10.4 15.6 0.00 0.00 0.00 55 1024.2
20211017144017 59 15 7.0 14.8 0.00 0.00 0.00 56 1024.3
20211017143511 59 5 7.8 14.8 0.00 0.00 0.00 57 1024.2
20211017143035 58 51 3.5 13.9 0.00 0.00 0.00 60 1024.2
20211017142514 58 14 5.2 13.9 0.00 0.00 0.00 60 1024.2
20211017142008 57 10 4.3 12.2 0.00 0.00 0.00 61 1024.2
20211017141517 57 24 5.2 12.2 0.00 0.00 0.00 60 1024.2
20211017141023 57 334 5.2 9.6 0.00 0.00 0.00 62 1024.0
20211017140510 57 307 2.6 10.4 0.00 0.00 0.00 65 1024.1
20211017140006 56 344 5.2 10.4 0.00 0.00 0.00 63 1023.9
20211017135508 56 345 3.5 10.4 0.00 0.01 0.00 65 1023.9
20211017135010 55 28 4.3 13.0 0.00 0.01 0.00 63 1023.9
20211017134101 55 360 6.1 12.2 0.00 0.01 0.00 65 1023.7
20211017133559 54 11 6.1 12.2 0.00 0.01 0.00 66 1023.6
20211017133135 54 29 5.2 12.2 0.00 0.01 0.00 68 1023.6
20211017132058 53 307 2.6 9.6 0.00 0.01 0.00 70 1023.5
20211017131652 53 342 4.3 9.6 0.00 0.01 0.00 69 1023.5
20211017131052 53 308 2.6 10.4 0.00 0.01 0.00 70 1023.4
20211017130550 52 306 2.6 12.2 0.00 0.01 0.00 71 1023.3
20211017130126 52 5 4.3 12.2 0.00 0.01 0.00 73 1023.3
20211017125600 51 342 4.3 9.6 0.00 0.01 0.00 73 1023.2
20211017125050 51 320 3.5 9.6 0.00 0.01 0.00 75 1023.2
20211017124556 50 318 4.3 9.6 0.00 0.01 0.00 76 1023.0
20211017124044 49 311 4.3 9.6 0.00 0.01 0.00 78 1022.9
20211017123547 48 345 3.5 8.7 0.00 0.01 0.00 79 1022.9
20211017123130 48 13 4.3 8.7 0.00 0.01 0.00 79 1023.0
20211017122541 48 347 2.6 8.7 0.00 0.01 0.00 80 1023.0
20211017122041 47 313 3.5 8.7 0.00 0.01 0.00 80 1023.0
20211017121609 47 338 2.6 7.8 0.00 0.01 0.00 81 1022.9
20211017121046 47 320 0.9 8.7 0.00 0.01 0.00 81 1022.9
20211017120547 47 319 4.3 8.7 0.00 0.01 0.00 81 1022.8
20211017120054 47 330 1.7 7.8 0.00 0.01 0.00 81 1022.7
20211017115605 47 347 2.6 7.8 0.00 0.01 0.00 81 1022.7
20211017115059 47 5 3.5 8.7 0.00 0.01 0.00 81 1022.7
20211017114605 47 5 3.5 8.7 0.00 0.01 0.00 81 1022.6
20211017114046 47 331 4.3 8.7 0.00 0.01 0.00 81 1022.6
20211017113537 47 338 3.5 8.7 0.00 0.01 0.00 81 1022.5
20211017113127 47 335 3.5 7.8 0.00 0.01 0.00 81 1022.6
20211017112542 47 330 0.9 7.8 0.00 0.01 0.00 81 1022.6
20211017112057 47 333 2.6 8.7 0.00 0.01 0.00 81 1022.6
20211017111544 47 5 3.5 9.6 0.00 0.01 0.00 81 1022.5
20211017111059 47 311 3.5 10.4 0.00 0.01 0.00 81 1022.5
20211017110537 47 347 4.3 10.4 0.00 0.01 0.00 81 1022.5
20211017110053 48 325 3.5 8.7 0.00 0.01 0.00 81 1022.5
20211017105536 48 10 3.5 8.7 0.00 0.01 0.00 80 1022.6
20211017105038 48 338 3.5 7.8 0.00 0.01 0.00 81 1022.6
20211017104548 48 325 2.6 7.8 0.00 0.01 0.00 81 1022.5
20211017104039 48 347 3.5 7.8 0.00 0.01 0.00 80 1022.5
20211017103535 48 319 3.5 8.7 0.00 0.01 0.00 80 1022.5
20211017103047 48 325 5.2 9.6 0.00 0.01 0.00 80 1022.4
20211017102534 48 315 3.5 9.6 0.00 0.01 0.00 80 1022.4
20211017102033 48 345 4.3 9.6 0.00 0.01 0.00 80 1022.4
20211017101558 48 324 5.2 9.6 0.00 0.01 0.00 80 1022.2
20211017101035 48 325 3.5 10.4 0.00 0.01 0.00 80 1022.2
20211017100532 48 315 2.6 9.6 0.00 0.01 0.00 81 1022.2
20211017100049 48 346 4.3 11.3 0.00 0.01 0.00 81 1022.1
20211017095041 48 306 5.2 10.4 0.00 0.01 0.00 81 1022.0
20211017094557 48 347 3.5 9.6 0.00 0.01 0.00 82 1022.0
20211017094030 48 317 5.2 9.6 0.00 0.01 0.00 82 1021.9
20211017093530 48 327 4.3 9.6 0.00 0.01 0.00 83 1021.8
20211017093042 48 296 3.5 8.7 0.00 0.01 0.00 83 1022.0
20211017092529 48 304 3.5 8.7 0.00 0.01 0.00 83 1021.9
20211017092053 48 298 3.5 8.7 0.00 0.01 0.00 83 1022.0
20211017091546 48 323 3.5 8.7 0.00 0.01 0.00 84 1022.0
20211017091029 47 331 2.6 9.6 0.00 0.01 0.00 85 1022.0
20211017090529 47 323 3.5 10.4 0.00 0.01 0.00 86 1022.0
20211017090122 47 315 4.3 9.6 0.00 0.01 0.00 87 1022.0
20211017085546 46 309 5.2 9.6 0.00 0.11 0.00 88 1022.0
20211017085036 46 313 4.3 8.7 0.00 0.11 0.00 89 1022.1
20211017084600 46 306 1.7 7.0 0.00 0.11 0.00 89 1022.2
20211017084037 46 313 0.9 4.3 0.00 0.11 0.00 89 1022.1
20211017083555 46 342 0.9 3.5 0.00 0.11 0.00 88 1022.1
20211017083102 46 319 0.0 2.6 0.00 0.11 0.00 89 1022.1
20211017082525 46 286 0.9 7.0 0.00 0.11 0.00 89 1022.1
20211017082025 46 268 0.9 7.0 0.00 0.11 0.00 89 1022.2
20211017081527 46 251 1.7 4.3 0.00 0.11 0.00 89 1022.2
20211017081024 47 271 1.7 4.3 0.00 0.11 0.00 88 1022.1
20211017080523 47 299 0.9 4.3 0.00 0.11 0.00 88 1022.1
20211017080034 47 272 0.9 5.2 0.00 0.11 0.00 87 1022.0
20211017075544 47 312 1.7 4.3 0.00 0.11 0.00 87 1022.1
20211017075036 47 295 0.9 4.3 0.00 0.11 0.00 87 1022.2
20211017074548 47 294 0.9 4.3 0.00 0.11 0.00 87 1022.2
20211017074022 47 300 0.9 4.3 0.00 0.11 0.00 86 1022.2
20211017073522 48 277 1.7 3.5 0.00 0.11 0.00 86 1022.1
20211017073030 48 314 0.9 4.3 0.00 0.11 0.00 86 1022.2
20211017072522 48 304 0.9 4.3 0.00 0.11 0.00 86 1022.2
20211017072024 48 294 1.7 4.3 0.00 0.11 0.00 86 1022.2
20211017071535 47 294 1.7 5.2 0.00 0.11 0.00 87 1022.2
20211017071036 47 306 3.5 5.2 0.00 0.11 0.00 87 1022.3
20211017070521 47 295 2.6 6.1 0.00 0.11 0.00 88 1022.3
20211017070055 47 291 2.6 5.2 0.00 0.11 0.00 88 1022.2
20211017065522 47 275 2.6 6.1 0.00 0.11 0.00 88 1022.2
20211017065043 47 275 1.7 6.1 0.00 0.11 0.00 88 1022.3
20211017064559 47 289 1.7 6.1 0.00 0.11 0.00 89 1022.2
20211017064025 46 271 1.7 3.5 0.00 0.11 0.00 89 1022.3
20211017063519 46 259 0.9 2.6 0.00 0.11 0.00 89 1022.3
20211017063040 46 256 0.0 2.6 0.00 0.11 0.00 89 1022.3
20211017062518 47 235 0.0 2.6 0.00 0.11 0.00 89 1022.2
20211017062017 47 231 0.9 2.6 0.00 0.11 0.00 88 1022.2
20211017061528 48 234 0.0 0.9 0.00 0.11 0.00 86 1022.2
20211017061016 48 252 0.0 1.7 0.00 0.11 0.00 85 1022.2
20211017060512 49 261 0.0 3.5 0.00 0.11 0.00 84 1022.2
20211017060020 49 300 0.0 3.5 0.00 0.11 0.00 82 1022.1
20211017055511 49 301 1.7 6.1 0.00 0.11 0.00 83 1022.1
20211017055011 48 315 2.6 6.1 0.00 0.11 0.00 84 1022.0
20211017054518 49 317 3.5 7.0 0.00 0.11 0.00 84 1022.0
20211017054011 49 321 3.5 7.0 0.00 0.11 0.00 84 1022.0
20211017053536 49 313 3.5 5.2 0.00 0.11 0.00 82 1022.1
20211017053010 49 299 0.0 4.3 0.00 0.11 0.00 82 1022.2
20211017052507 49 307 0.9 4.3 0.00 0.11 0.00 82 1022.2
20211017052006 49 301 1.7 4.3 0.00 0.11 0.00 81 1022.2
20211017051538 49 278 0.9 5.2 0.00 0.11 0.00 81 1022.1
20211017051011 49 311 3.5 7.0 0.00 0.11 0.00 81 1022.0
20211017050509 49 319 3.5 7.0 0.00 0.11 0.00 81 1022.0
20211017050005 49 307 0.9 4.3 0.00 0.11 0.00 81 1022.0
20211017045511 50 303 1.7 5.2 0.00 0.11 0.11 80 1022.0
20211017045003 50 317 1.7 7.8 0.00 0.11 0.11 80 1021.9
20211017044506 50 315 2.6 7.8 0.00 0.11 0.11 80 1021.9
20211017044141 50 311 1.7 4.3 0.00 0.11 0.11 79 1021.9
20211017043634 51 294 1.7 5.2 0.00 0.11 0.11 78 1022.0
20211017042636 51 277 2.6 7.0 0.00 0.11 0.11 76 1022.0
20211017042057 51 316 2.6 5.2 0.00 0.11 0.11 76 1021.9
20211017041711 52 306 1.7 7.0 0.00 0.11 0.11 75 1021.9
20211017041056 52 300 3.5 7.0 0.00 0.11 0.11 74 1022.0
20211017040628 52 306 2.6 7.0 0.00 0.11 0.11 74 1021.9
20211017040138 52 294 3.5 7.8 0.00 0.11 0.11 74 1021.9
20211017035612 52 323 4.3 7.8 0.00 0.11 0.11 73 1021.9
20211017035056 52 305 4.3 7.8 0.00 0.11 0.11 73 1021.8
20211017034634 52 300 5.2 8.7 0.00 0.11 0.11 73 1021.9
20211017034057 52 319 5.2 8.7 0.00 0.11 0.11 73 1021.9
20211017033554 52 306 5.2 9.6 0.00 0.11 0.11 73 1021.8
20211017033112 52 321 5.2 9.6 0.00 0.11 0.11 74 1021.9
20211017032602 52 309 4.3 9.6 0.00 0.11 0.11 74 1021.8
20211017032109 52 316 6.1 9.6 0.00 0.11 0.11 74 1021.8
20211017031722 52 318 6.1 8.7 0.00 0.11 0.11 75 1021.9
20211017031051 52 317 4.3 7.8 0.00 0.11 0.11 76 1021.9
20211017030549 51 315 4.3 7.8 0.00 0.11 0.11 76 1021.9
20211017030126 51 304 3.5 6.1 0.00 0.11 0.11 76 1022.0
20211017025609 52 287 2.6 5.2 0.00 0.11 0.11 76 1021.8
20211017025050 52 306 2.6 5.2 0.00 0.11 0.11 76 1021.9
20211017024627 52 296 2.6 5.2 0.00 0.11 0.11 76 1021.9
20211017024045 52 306 1.7 4.3 0.00 0.11 0.11 76 1021.9
20211017023607 53 303 1.7 5.2 0.00 0.11 0.11 71 1021.8
20211017023147 53 304 1.7 5.2 0.00 0.11 0.11 72 1021.8
20211017022543 53 304 1.7 5.2 0.00 0.11 0.11 71 1021.6
20211017022043 53 313 2.6 5.2 0.00 0.11 0.11 69 1021.6
20211017021620 53 326 2.6 7.8 0.00 0.11 0.11 69 1021.5
20211017021041 53 312 3.5 7.8 0.00 0.11 0.11 69 1021.5
20211017020542 53 310 5.2 7.8 0.00 0.11 0.11 69 1021.4
20211017020056 53 316 5.2 8.7 0.00 0.11 0.11 69 1021.4
20211017015542 53 315 4.3 8.7 0.00 0.11 0.11 70 1021.4
20211017015044 53 313 4.3 7.8 0.00 0.11 0.11 69 1021.4
20211017014701 53 290 3.5 5.2 0.00 0.11 0.11 69 1021.4
20211017014039 53 324 2.6 5.2 0.00 0.11 0.11 67 1021.3
20211017013537 53 317 2.6 5.2 0.00 0.11 0.11 68 1021.3
20211017013039 53 308 3.5 5.2 0.00 0.11 0.11 67 1021.2
20211017012546 54 304 2.6 5.2 0.00 0.11 0.11 67 1021.2
20211017012038 54 320 1.7 6.1 0.00 0.11 0.11 67 1021.2
20211017011559 54 324 2.6 7.0 0.00 0.11 0.11 66 1021.1
20211017011034 54 311 1.7 7.0 0.00 0.11 0.11 66 1021.0
20211017010534 54 336 2.6 7.0 0.00 0.11 0.11 66 1021.1
20211017010127 54 311 2.6 8.7 0.00 0.11 0.11 67 1021.0
20211017005531 54 309 3.5 8.7 0.00 0.11 0.11 67 1021.0
20211017005034 54 310 2.6 7.8 0.00 0.11 0.11 67 1021.0
20211017004559 54 317 4.3 7.8 0.00 0.11 0.11 67 1020.9
20211017004037 54 311 2.6 7.0 0.00 0.11 0.11 67 1020.8
20211017003528 54 322 2.6 5.2 0.00 0.11 0.11 68 1021.0
20211017003106 54 321 2.6 4.3 0.00 0.11 0.11 67 1020.9
20211017002528 55 304 1.7 4.3 0.00 0.11 0.11 66 1020.9
20211017002025 55 324 1.7 5.2 0.00 0.11 0.11 65 1020.8
20211017001528 55 329 2.6 5.2 0.00 0.11 0.11 64 1020.9
20211017001026 55 332 2.6 4.3 0.00 0.11 0.11 63 1020.8
20211017000522 56 312 2.6 4.3 0.00 0.11 0.11 62 1020.8
20211017000033 56 317 1.7 4.3 0.00 0.11 0.11 61 1020.6
20211016235518 57 339 2.6 7.0 0.00 0.11 0.11 60 1020.5
20211016235035 57 321 2.6 7.8 0.00 0.11 0.11 58 1020.4
20211016234532 58 306 2.6 7.8 0.00 0.11 0.11 57 1020.4
20211016234015 58 5 3.5 7.8 0.00 0.11 0.11 55 1020.5
20211016233514 58 307 2.6 10.4 0.00 0.11 0.11 54 1020.3
20211016233018 59 315 3.5 10.4 0.00 0.11 0.11 54 1020.1
20211016232519 59 319 4.3 10.4 0.00 0.11 0.11 52 1020.1
20211016232020 59 320 5.2 10.4 0.00 0.11 0.11 52 1020.0
20211016231516 60 346 4.3 11.3 0.00 0.11 0.11 51 1020.0
20211016231013 60 320 7.0 12.2 0.00 0.11 0.11 50 1019.9
20211016230524 61 313 5.2 12.2 0.00 0.11 0.11 48 1019.8
20211016230015 61 319 6.1 12.2 0.00 0.11 0.11 49 1019.8
20211016225519 62 304 6.1 13.0 0.00 0.11 0.11 47 1019.8
20211016225012 63 319 7.8 13.0 0.00 0.11 0.11 46 1019.8
20211016224513 64 306 6.1 14.8 0.00 0.11 0.11 44 1019.8
20211016224011 64 323 7.0 14.8 0.00 0.11 0.11 44 1019.8
20211016223511 64 310 5.2 12.2 0.00 0.11 0.11 44 1019.7
20211016223011 65 336 5.2 13.0 0.00 0.11 0.11 45 1019.6
20211016222514 65 288 6.1 10.4 0.00 0.11 0.11 44 1019.6
20211016222011 66 311 6.1 11.3 0.00 0.11 0.11 45 1019.5
20211016221531 66 297 2.6 14.8 0.00 0.11 0.11 45 1019.6
20211016221013 66 313 7.0 15.6 0.00 0.11 0.11 43 1019.5
20211016220508 66 346 10.4 15.6 0.00 0.11 0.11 43 1019.5
20211016220011 66 319 7.8 14.8 0.00 0.11 0.11 44 1019.5
20211016215508 67 329 7.0 14.8 0.00 0.11 0.11 43 1019.4
20211016215008 67 305 7.0 16.5 0.00 0.11 0.11 45 1019.3
20211016214518 67 26 5.2 16.5 0.00 0.11 0.11 45 1019.1
20211016214008 67 330 8.7 15.6 0.00 0.11 0.11 42 1019.3
20211016213511 67 5 7.0 15.6 0.00 0.11 0.11 44 1019.2
20211016213010 67 337 9.6 15.6 0.00 0.11 0.11 42 1019.2
20211016212508 67 323 5.2 15.6 0.00 0.11 0.11 44 1019.1
20211016212008 67 338 10.4 16.5 0.00 0.11 0.11 42 1019.1
20211016211507 67 14 9.6 17.4 0.00 0.11 0.11 42 1019.1
20211016211021 68 316 10.4 17.4 0.00 0.11 0.11 42 1019.2
20211016210517 68 328 7.8 16.5 0.00 0.11 0.11 43 1019.1
20211016210024 68 298 7.0 16.5 0.00 0.11 0.11 43 1019.1
20211016205514 68 346 7.8 16.5 0.00 0.11 0.11 44 1019.1
20211016205006 68 34 10.4 16.5 0.00 0.11 0.11 42 1019.0
20211016204009 68 333 4.3 16.5 0.00 0.11 0.11 45 1019.2
20211016203505 68 331 8.7 16.5 0.00 0.11 0.11 43 1019.2
20211016203004 68 317 8.7 15.6 0.00 0.11 0.11 43 1019.0
20211016202506 68 328 7.0 15.6 0.00 0.11 0.11 44 1019.0
20211016202005 68 342 9.6 15.6 0.00 0.11 0.11 42 1019.2
20211016201502 69 342 8.7 13.9 0.00 0.11 0.11 43 1019.2
20211016201006 69 304 8.7 15.6 0.00 0.11 0.11 44 1019.2
20211016200501 68 313 8.7 15.6 0.00 0.11 0.11 45 1019.1
20211016200001 68 320 8.7 13.9 0.00 0.11 0.11 47 1019.2
20211016195503 68 317 5.2 16.5 0.00 0.11 0.11 49 1019.2
20211016195001 68 324 7.0 18.2 0.00 0.11 0.11 46 1019.1
20211016194502 68 309 9.6 18.2 0.00 0.11 0.11 46 1019.0
20211016193604 67 296 11.3 21.7 0.00 0.11 0.11 45 1019.1
20211016193119 67 296 10.4 21.7 0.00 0.11 0.11 46 1019.1
20211016192614 68 322 13.9 21.7 0.00 0.11 0.11 45 1019.2
20211016192112 68 316 7.0 17.4 0.00 0.11 0.11 49 1019.2
20211016191640 68 296 10.4 16.5 0.00 0.11 0.11 47 1019.0
20211016191059 68 319 7.0 16.5 0.00 0.11 0.11 49 1019.1
20211016190557 68 300 9.6 16.5 0.00 0.11 0.11 50 1019.1
20211016190123 67 298 6.1 16.5 0.00 0.11 0.11 52 1019.1
20211016185557 67 319 8.7 16.5 0.00 0.11 0.11 51 1019.0
20211016185057 68 290 8.7 16.5 0.00 0.11 0.11 49 1018.9
20211016184753 68 324 8.7 17.4 0.00 0.11 0.11 52 1019.1
20211016184056 68 322 5.2 17.4 0.00 0.11 0.11 52 1019.1
20211016183559 68 326 10.4 16.5 0.00 0.11 0.11 50 1019.3
20211016183114 68 303 11.3 17.4 0.00 0.11 0.11 49 1019.3
20211016182555 68 326 7.0 17.4 0.00 0.11 0.11 50 1019.4
20211016182054 68 346 9.6 16.5 0.00 0.11 0.11 53 1019.4
20211016181633 68 308 7.0 14.8 0.00 0.11 0.11 56 1019.5
20211016181052 67 320 10.4 18.2 0.00 0.11 0.11 56 1019.5
20211016180553 67 287 11.3 20.0 0.00 0.11 0.11 57 1019.6
20211016180135 67 309 7.8 20.0 0.00 0.11 0.11 55 1019.7
20211016175551 67 307 11.3 19.1 0.00 0.11 0.11 57 1019.7
20211016175103 67 319 13.0 19.1 0.00 0.11 0.11 59 1019.7
20211016174641 66 292 9.6 20.0 0.00 0.11 0.11 60 1019.7
20211016174053 67 275 12.2 17.4 0.00 0.11 0.11 57 1019.8
20211016173557 66 346 10.4 16.5 0.00 0.11 0.11 62 1019.8
20211016173138 66 289 9.6 16.5 0.00 0.11 0.11 62 1019.9
20211016172601 66 305 8.7 16.5 0.00 0.11 0.11 64 1019.8
20211016172051 67 313 8.7 18.2 0.00 0.11 0.11 63 1019.9
20211016171604 67 311 10.4 18.2 0.00 0.11 0.11 64 1019.9
20211016171050 66 12 7.8 14.8 0.00 0.11 0.11 65 1019.8
20211016170547 66 313 7.8 18.2 0.00 0.11 0.11 66 1019.8
20211016170056 66 335 9.6 15.6 0.00 0.11 0.11 67 1020.0
20211016165547 66 304 6.1 17.4 0.00 0.11 0.11 67 1019.9
20211016165103 65 310 8.7 17.4 0.00 0.11 0.11 67 1019.9
20211016164628 65 311 6.1 13.0 0.00 0.11 0.11 70 1019.9
20211016164045 65 297 7.0 14.8 0.00 0.11 0.11 70 1020.0
20211016163615 65 333 7.0 15.6 0.00 0.11 0.11 68 1019.9
20211016163126 65 309 9.6 15.6 0.00 0.11 0.11 69 1020.0
20211016162544 65 323 8.7 14.8 0.00 0.11 0.11 71 1019.9
20211016162044 64 310 7.0 13.9 0.00 0.11 0.11 72 1020.1
20211016161613 64 5 6.1 18.2 0.00 0.11 0.11 73 1020.2
20211016161049 63 5 11.3 18.2 0.00 0.11 0.11 71 1020.0
20211016160548 63 321 9.6 15.6 0.00 0.11 0.11 72 1019.9
20211016160112 62 341 7.8 15.6 0.00 0.11 0.11 75 1019.8
20211016155542 62 302 7.8 18.2 0.00 0.11 0.11 78 1019.9
20211016155043 62 319 7.0 20.9 0.00 0.11 0.11 77 1020.0
20211016154603 61 293 9.6 20.9 0.00 0.11 0.11 77 1020.0
20211016154039 60 26 7.0 18.2 0.00 0.11 0.11 79 1019.9
20211016153558 60 314 10.4 18.2 0.00 0.11 0.11 80 1019.9
20211016153046 59 323 7.0 22.6 0.00 0.11 0.11 81 1019.9
20211016152550 59 331 10.4 22.6 0.00 0.11 0.11 82 1019.9
20211016152040 59 319 10.4 16.5 0.00 0.11 0.11 84 1019.9
20211016151644 59 291 9.6 16.5 0.00 0.11 0.11 85 1019.8
20211016151053 58 323 6.1 16.5 0.00 0.11 0.11 86 1019.8
20211016150558 58 298 9.6 15.6 0.00 0.11 0.11 86 1019.8
20211016150038 58 300 8.7 15.6 0.00 0.11 0.11 87 1019.8